ND5T-1 Weather Reports


time (UTC)temp
C
wind
direction
speed
KPH
gust
KPH
rain 1hr
cm
rain 24hr
cm
rain mn
cm
humidity
%
barometer
mb
20260505074318 21 65 0.0 0.0 0.00 0.00 0.00 89 1009.7
20260505073336 21 65 0.0 0.0 0.00 0.00 0.00 89 1009.8
20260505072336 21 65 0.0 3.2 0.00 0.00 0.00 89 1010.0
20260505071353 21 281 0.0 0.0 0.00 0.00 0.00 89 1010.0
20260505070333 21 281 0.0 1.6 0.00 0.00 0.00 88 1010.1
20260505065320 21 304 0.0 1.6 0.00 0.00 0.00 88 1010.2
20260505064319 21 305 0.0 0.0 0.00 0.00 0.00 87 1010.2
20260505063321 21 305 0.0 0.0 0.00 0.00 0.00 87 1010.5
20260505062319 21 305 0.0 0.0 0.00 0.00 0.00 86 1010.5
20260505061318 21 304 0.0 0.0 0.00 0.00 0.00 86 1010.7
20260505060320 21 304 0.0 0.0 0.00 0.00 0.00 85 1010.6
20260505055332 21 304 0.0 1.6 0.00 0.00 0.00 85 1010.6
20260505054332 21 304 0.0 3.2 0.00 0.00 0.00 84 1010.8
20260505053332 21 321 0.0 0.0 0.00 0.00 0.00 83 1010.7
20260505052346 21 321 0.0 1.6 0.00 0.00 0.00 83 1011.0
20260505051323 22 351 0.0 4.8 0.00 0.00 0.00 82 1011.1
20260505050324 22 31 0.0 1.6 0.00 0.00 0.00 81 1011.1
20260505041325 22 75 0.0 1.6 0.00 0.00 0.00 80 1010.9
20260505040325 22 13 0.0 3.2 0.00 0.00 0.00 79 1011.3
20260505035334 22 133 0.0 1.6 0.00 0.00 0.00 79 1011.1
20260505034332 22 133 0.0 4.8 0.00 0.00 0.00 79 1011.1
20260505033331 22 306 0.0 3.2 0.00 0.00 0.00 78 1011.4
20260505032334 22 90 1.6 4.8 0.00 0.00 0.00 78 1011.4
20260505031318 22 53 0.0 3.2 0.00 0.00 0.00 78 1011.4
20260505030318 22 223 0.0 6.4 0.00 0.00 0.00 79 1011.2
20260505025327 22 222 0.0 8.0 0.00 0.00 0.00 78 1011.1
20260505024349 22 121 0.0 4.8 0.00 0.00 0.00 77 1011.2
20260505023331 22 126 0.0 1.6 0.00 0.00 0.00 77 1011.2
20260505022353 22 22 0.0 4.8 0.00 0.00 0.00 77 1011.2
20260505021348 22 156 0.0 4.8 0.00 0.00 0.00 77 1011.2
20260505020328 22 5 0.0 3.2 0.00 0.00 0.00 77 1011.0
20260505015317 22 69 0.0 0.0 0.00 0.00 0.00 76 1010.9
20260505014320 23 69 0.0 1.6 0.00 0.00 0.00 76 1010.7
20260505013322 23 69 0.0 0.0 0.00 0.00 0.00 75 1010.7
20260505012325 23 69 0.0 3.2 0.00 0.00 0.00 74 1010.6
20260505011329 23 32 0.0 1.6 0.00 0.00 0.00 73 1010.7
20260505010328 23 31 0.0 1.6 0.00 0.00 0.00 73 1010.6
20260505005317 23 343 0.0 3.2 0.00 0.00 0.00 73 1010.7
20260505004335 24 325 0.0 1.6 0.00 0.00 0.00 73 1010.6
20260505003317 24 323 0.0 3.2 0.00 0.00 0.00 72 1010.5
20260505002334 24 48 0.0 4.8 0.00 0.00 0.00 71 1010.5
20260505001334 24 101 1.6 6.4 0.00 0.00 0.00 71 1010.6
20260505000334 24 32 0.0 3.2 0.00 0.00 0.00 71 1010.8
20260504235329 25 195 0.0 4.8 0.00 0.00 0.00 70 1010.8
20260504234333 25 160 0.0 6.4 0.00 0.00 0.00 70 1010.7
20260504233335 25 355 0.0 3.2 0.00 0.00 0.00 71 1010.7
20260504232336 25 99 0.0 4.8 0.00 0.00 0.00 70 1010.8
20260504231318 25 76 1.6 6.4 0.00 0.00 0.00 69 1011.0
20260504230319 25 92 1.6 6.4 0.00 0.00 0.00 69 1011.2
20260504225329 25 294 1.6 6.4 0.00 0.00 0.00 69 1011.1
20260504224348 25 106 3.2 9.7 0.00 0.00 0.00 68 1011.2
20260504223325 25 80 0.0 4.8 0.00 0.00 0.00 67 1011.4
20260504222325 26 78 1.6 8.0 0.00 0.00 0.00 66 1011.5
20260504221325 26 9 0.0 3.2 0.00 0.00 0.00 67 1011.6
20260504220330 26 113 0.0 3.2 0.00 0.00 0.00 65 1011.6
20260504215322 26 135 0.0 6.4 0.00 0.00 0.00 63 1011.5
20260504214320 26 70 0.0 4.8 0.00 0.00 0.00 61 1011.8
20260504213321 27 84 1.6 3.2 0.00 0.00 0.00 59 1011.7
20260504212321 28 80 0.0 3.2 0.00 0.00 0.00 57 1011.8
20260504211321 28 105 0.0 3.2 0.00 0.00 0.00 57 1012.2
20260504210340 28 105 0.0 3.2 0.00 0.00 0.00 55 1012.1
20260504205347 28 101 1.6 4.8 0.00 0.00 0.00 54 1012.4
20260504204330 28 36 0.0 4.8 0.00 0.00 0.00 56 1012.6
20260504203330 28 207 0.0 4.8 0.00 0.00 0.00 55 1012.7
20260504202326 27 60 0.0 3.2 0.00 0.00 0.00 54 1012.9
20260504201329 28 206 0.0 6.4 0.00 0.00 0.00 54 1012.9
20260504200331 27 73 0.0 3.2 0.00 0.00 0.00 54 1013.0
20260504195319 27 117 0.0 3.2 0.00 0.00 0.00 56 1013.3
20260504194320 27 131 0.0 4.8 0.00 0.00 0.00 58 1013.5
20260504193319 27 271 0.0 4.8 0.00 0.00 0.00 57 1013.7
20260504192320 27 107 0.0 3.2 0.00 0.00 0.00 56 1013.7
20260504191319 27 22 0.0 1.6 0.00 0.00 0.00 59 1014.0
20260504190318 27 297 0.0 4.8 0.00 0.00 0.00 56 1014.1
20260504185324 27 57 0.0 6.4 0.00 0.00 0.00 54 1014.1
20260504184324 27 55 0.0 4.8 0.00 0.00 0.00 55 1014.2
20260504183325 27 105 0.0 4.8 0.00 0.00 0.00 52 1014.3
20260504182324 27 331 1.6 6.4 0.00 0.00 0.00 54 1014.4
20260504181325 27 311 0.0 3.2 0.00 0.00 0.00 55 1014.5
20260504180348 27 16 0.0 6.4 0.00 0.00 0.00 53 1014.6
20260504175353 27 71 0.0 4.8 0.00 0.00 0.00 57 1014.9
20260504174332 26 5 0.0 4.8 0.00 0.00 0.00 57 1015.0
20260504173335 26 5 0.0 4.8 0.00 0.00 0.00 59 1015.1
20260504172349 26 148 1.6 8.0 0.00 0.00 0.00 55 1015.3
20260504171330 26 90 0.0 4.8 0.00 0.00 0.00 60 1015.4
20260504170351 25 342 0.0 8.0 0.00 0.00 0.00 58 1015.5
20260504160346 25 290 1.6 4.8 0.00 0.00 0.00 61 1016.3
20260504150331 22 190 0.0 4.8 0.00 0.00 0.00 67 1016.4
20260504141334 20 163 0.0 1.6 0.00 0.00 0.00 80 1016.3
20260504140333 18 164 0.0 1.6 0.00 0.00 0.00 81 1016.3
20260504130324 13 171 0.0 0.0 0.00 0.00 0.00 95 1016.4
20260504110324 12 174 0.0 0.0 0.00 0.00 0.00 93 1016.0
20260504100316 12 174 0.0 0.0 0.00 0.00 0.00 92 1016.2
20260504081332 13 174 0.0 0.0 0.00 0.00 0.00 91 1016.8
20260504080335 13 174 0.0 0.0 0.00 0.00 0.00 91 1017.0